Tracking 25954 objects as of 14-Aug-2022
HD Live streaming from Space Station
objects crossing your sky now

OV1-14

Track OV1-14 now!
10-day predictions
OV1-14 is classified as:


NORAD ID: 3174
Int'l Code: 1968-026B
Perigee: 607.1 km
Apogee: 9,818.2 km
Inclination: 100.1 °
Period: 206.8 minutes
Semi major axis: 11583 km
RCS: 0.7366 m2 (medium)
Launch date: April 6, 1968
Source: United States (US)
Launch site: AIR FORCE WESTERN TEST RANGE (AFWTR)
aabbcc
Your satellite tracking list
Your tracking list is empty




NASA's NSSDC Master Catalog

Two Line Element Set (TLE):
1 03174U 68026B   22226.15401384  .00000248  00000-0  56489-3 0  9996
2 03174 100.0659 292.9758 3975903 261.0932  65.2875  6.96361771378624
Source of the keplerian elements: AFSPC